| time (UTC) | temp C | wind direction | speed KPH | gust KPH | rain 1hr cm | rain 24hr cm | rain mn cm | humidity % | barometer mb |
| 20260509031543 | 12 | 0 | 0.0 | 0.0 | 0.00 | 0.00 | 0.00 | 90 | 1016.8 |
| 20260509030041 | 12 | 0 | 0.0 | 0.0 | 0.00 | 0.00 | 0.00 | 89 | 1016.6 |
| 20260509024537 | 12 | 0 | 0.0 | 0.0 | 0.00 | 0.00 | 0.00 | 89 | 1016.6 |
| 20260509023035 | 12 | 0 | 0.0 | 0.0 | 0.00 | 0.00 | 0.00 | 89 | 1016.6 |
| 20260509021540 | 12 | 0 | 0.0 | 0.0 | 0.00 | 0.00 | 0.00 | 89 | 1016.5 |
| 20260509020043 | 12 | 0 | 0.0 | 0.0 | 0.00 | 0.00 | 0.00 | 88 | 1016.5 |
| 20260509014540 | 12 | 0 | 0.0 | 0.0 | 0.00 | 0.00 | 0.00 | 88 | 1016.5 |
| 20260509013052 | 12 | 0 | 0.0 | 0.0 | 0.00 | 0.00 | 0.00 | 86 | 1016.2 |
| 20260509011539 | 12 | 0 | 0.0 | 0.0 | 0.00 | 0.00 | 0.00 | 86 | 1016.2 |
| 20260509010042 | 13 | 0 | 0.0 | 1.6 | 0.00 | 0.00 | 0.00 | 84 | 1016.2 |
| 20260509004602 | 13 | 0 | 0.0 | 1.6 | 0.00 | 0.00 | 0.00 | 83 | 1016.1 |
| 20260509003044 | 14 | 0 | 0.0 | 1.6 | 0.00 | 0.00 | 0.00 | 82 | 1016.0 |
| 20260509001542 | 15 | 0 | 0.0 | 1.6 | 0.00 | 0.00 | 0.00 | 81 | 1016.0 |
| 20260509000036 | 15 | 0 | 0.0 | 1.6 | 0.00 | 0.00 | 0.00 | 80 | 1015.9 |
| 20260508234538 | 15 | 0 | 0.0 | 1.6 | 0.00 | 0.00 | 0.00 | 78 | 1016.0 |
| 20260508233043 | 16 | 0 | 0.0 | 3.2 | 0.00 | 0.00 | 0.00 | 71 | 1015.7 |
| 20260508231540 | 16 | 229 | 0.0 | 3.2 | 0.00 | 0.00 | 0.00 | 71 | 1015.9 |
| 20260508230053 | 16 | 229 | 1.6 | 4.8 | 0.00 | 0.00 | 0.00 | 69 | 1016.2 |
| 20260508224541 | 17 | 242 | 0.0 | 4.8 | 0.00 | 0.00 | 0.00 | 68 | 1015.9 |
| 20260508223038 | 17 | 0 | 1.6 | 6.4 | 0.00 | 0.00 | 0.00 | 66 | 1015.9 |
| 20260508221537 | 17 | 0 | 1.6 | 6.4 | 0.00 | 0.00 | 0.00 | 66 | 1015.8 |
| 20260508220041 | 17 | 183 | 0.0 | 8.0 | 0.00 | 0.00 | 0.00 | 65 | 1015.8 |
| 20260508214547 | 17 | 138 | 0.0 | 6.4 | 0.00 | 0.00 | 0.00 | 62 | 1015.9 |
| 20260508213040 | 17 | 209 | 3.2 | 11.3 | 0.00 | 0.00 | 0.00 | 61 | 1015.8 |
| 20260508211540 | 18 | 225 | 4.8 | 16.1 | 0.00 | 0.00 | 0.00 | 58 | 1016.0 |
| 20260508210048 | 18 | 107 | 4.8 | 17.7 | 0.00 | 0.00 | 0.00 | 57 | 1016.2 |
| 20260508204537 | 18 | 244 | 3.2 | 11.3 | 0.00 | 0.00 | 0.00 | 59 | 1015.9 |
| 20260508203046 | 18 | 211 | 1.6 | 16.1 | 0.00 | 0.00 | 0.00 | 58 | 1016.0 |
| 20260508201541 | 18 | 155 | 1.6 | 12.9 | 0.00 | 0.00 | 0.00 | 56 | 1016.3 |
| 20260508200047 | 18 | 94 | 4.8 | 16.1 | 0.00 | 0.00 | 0.00 | 57 | 1016.2 |
| 20260508194545 | 18 | 130 | 4.8 | 14.5 | 0.00 | 0.00 | 0.00 | 56 | 1016.5 |
| 20260508193042 | 18 | 93 | 4.8 | 19.3 | 0.00 | 0.00 | 0.00 | 55 | 1016.8 |
| 20260508191548 | 20 | 242 | 1.6 | 11.3 | 0.00 | 0.00 | 0.00 | 52 | 1017.0 |
| 20260508190052 | 19 | 134 | 8.0 | 19.3 | 0.00 | 0.00 | 0.00 | 51 | 1017.1 |
| 20260508184558 | 19 | 125 | 3.2 | 12.9 | 0.00 | 0.00 | 0.00 | 54 | 1017.3 |
| 20260508183040 | 18 | 0 | 1.6 | 17.7 | 0.00 | 0.00 | 0.00 | 54 | 1017.5 |
| 20260508181554 | 18 | 221 | 4.8 | 17.7 | 0.00 | 0.00 | 0.00 | 55 | 1017.9 |
| 20260508180046 | 18 | 202 | 6.4 | 16.1 | 0.00 | 0.00 | 0.00 | 55 | 1018.0 |
| 20260508174537 | 18 | 138 | 3.2 | 12.9 | 0.00 | 0.00 | 0.00 | 55 | 1018.2 |
| 20260508173047 | 17 | 93 | 4.8 | 16.1 | 0.00 | 0.00 | 0.00 | 56 | 1018.2 |
| 20260508171541 | 17 | 142 | 4.8 | 11.3 | 0.00 | 0.00 | 0.00 | 57 | 1018.5 |
| 20260508170040 | 17 | 59 | 3.2 | 12.9 | 0.00 | 0.00 | 0.00 | 57 | 1018.6 |
| 20260508164545 | 18 | 211 | 1.6 | 12.9 | 0.00 | 0.00 | 0.00 | 54 | 1018.8 |
| 20260508163037 | 17 | 257 | 1.6 | 17.7 | 0.00 | 0.00 | 0.00 | 54 | 1019.0 |
| 20260508161543 | 17 | 134 | 3.2 | 14.5 | 0.00 | 0.00 | 0.00 | 55 | 1019.4 |
| 20260508160040 | 16 | 115 | 3.2 | 16.1 | 0.00 | 0.00 | 0.00 | 55 | 1019.6 |
| 20260508154542 | 16 | 109 | 1.6 | 19.3 | 0.00 | 0.00 | 0.00 | 58 | 1019.5 |
| 20260508153037 | 16 | 98 | 6.4 | 16.1 | 0.00 | 0.00 | 0.00 | 60 | 1019.7 |
| 20260508151535 | 16 | 141 | 3.2 | 12.9 | 0.00 | 0.00 | 0.00 | 61 | 1019.7 |
| 20260508150037 | 16 | 119 | 1.6 | 12.9 | 0.00 | 0.00 | 0.00 | 60 | 1019.9 |
| 20260508144601 | 15 | 102 | 3.2 | 11.3 | 0.00 | 0.00 | 0.00 | 60 | 1019.8 |
| 20260508143041 | 15 | 186 | 1.6 | 8.0 | 0.00 | 0.00 | 0.00 | 62 | 1019.7 |
| 20260508141542 | 15 | 82 | 3.2 | 12.9 | 0.00 | 0.00 | 0.00 | 62 | 1019.6 |
| 20260508140044 | 15 | 131 | 1.6 | 12.9 | 0.00 | 0.00 | 0.00 | 62 | 1019.9 |
| 20260508134540 | 14 | 0 | 1.6 | 11.3 | 0.00 | 0.00 | 0.00 | 64 | 1020.0 |
| 20260508133105 | 13 | 0 | 1.6 | 6.4 | 0.00 | 0.00 | 0.00 | 70 | 1020.1 |
| 20260508131547 | 12 | 164 | 0.0 | 4.8 | 0.00 | 0.00 | 0.00 | 74 | 1019.9 |
| 20260508130040 | 12 | 0 | 0.0 | 4.8 | 0.00 | 0.00 | 0.00 | 82 | 1019.6 |
| 20260508124539 | 11 | 360 | 1.6 | 6.4 | 0.00 | 0.00 | 0.00 | 90 | 1019.4 |
| 20260508123056 | 10 | 0 | 0.0 | 3.2 | 0.00 | 0.00 | 0.00 | 92 | 1019.2 |
| 20260508121540 | 8 | 271 | 0.0 | 3.2 | 0.00 | 0.00 | 0.00 | 93 | 1019.1 |
| 20260508120043 | 8 | 271 | 0.0 | 3.2 | 0.00 | 0.00 | 0.00 | 93 | 1018.8 |
| 20260508114536 | 7 | 0 | 0.0 | 0.0 | 0.00 | 0.00 | 0.00 | 93 | 1018.6 |
| 20260508113050 | 7 | 0 | 0.0 | 0.0 | 0.00 | 0.00 | 0.00 | 92 | 1018.4 |
| 20260508111543 | 6 | 0 | 0.0 | 0.0 | 0.00 | 0.00 | 0.00 | 92 | 1018.1 |
| 20260508110052 | 6 | 0 | 0.0 | 0.0 | 0.00 | 0.00 | 0.00 | 92 | 1017.6 |
| 20260508104540 | 6 | 0 | 0.0 | 0.0 | 0.00 | 0.00 | 0.00 | 91 | 1017.4 |
| 20260508103041 | 6 | 0 | 0.0 | 0.0 | 0.00 | 0.00 | 0.00 | 91 | 1017.0 |
| 20260508101538 | 7 | 0 | 0.0 | 1.6 | 0.00 | 0.00 | 0.00 | 91 | 1017.1 |
| 20260508100044 | 7 | 0 | 0.0 | 3.2 | 0.00 | 0.00 | 0.00 | 91 | 1016.9 |
| 20260508094540 | 7 | 0 | 0.0 | 0.0 | 0.00 | 0.00 | 0.00 | 91 | 1016.7 |
| 20260508093040 | 7 | 0 | 0.0 | 4.8 | 0.00 | 0.00 | 0.00 | 91 | 1016.5 |
| 20260508091551 | 7 | 274 | 0.0 | 0.0 | 0.00 | 0.00 | 0.00 | 92 | 1016.4 |
| 20260508090057 | 7 | 0 | 0.0 | 1.6 | 0.00 | 0.00 | 0.00 | 91 | 1016.5 |
| 20260508084538 | 7 | 0 | 0.0 | 3.2 | 0.00 | 0.00 | 0.00 | 91 | 1016.3 |
| 20260508083042 | 7 | 0 | 0.0 | 1.6 | 0.00 | 0.00 | 0.00 | 90 | 1016.4 |
| 20260508081543 | 7 | 0 | 0.0 | 3.2 | 0.00 | 0.00 | 0.00 | 90 | 1016.3 |
| 20260508080035 | 7 | 274 | 0.0 | 3.2 | 0.00 | 0.00 | 0.00 | 89 | 1016.1 |
| 20260508074542 | 7 | 0 | 0.0 | 1.6 | 0.00 | 0.00 | 0.00 | 89 | 1016.2 |
| 20260508073037 | 7 | 0 | 0.0 | 3.2 | 0.00 | 0.00 | 0.00 | 89 | 1016.2 |
| 20260508071549 | 8 | 360 | 1.6 | 3.2 | 0.00 | 0.00 | 0.00 | 88 | 1016.0 |
| 20260508070040 | 8 | 0 | 0.0 | 1.6 | 0.00 | 0.00 | 0.00 | 88 | 1016.0 |
| 20260508064539 | 8 | 360 | 1.6 | 4.8 | 0.00 | 0.00 | 0.00 | 87 | 1016.0 |
| 20260508063043 | 9 | 360 | 0.0 | 3.2 | 0.00 | 0.00 | 0.00 | 87 | 1015.8 |
| 20260508061541 | 9 | 0 | 0.0 | 1.6 | 0.00 | 0.00 | 0.00 | 87 | 1015.9 |
| 20260508060042 | 9 | 0 | 0.0 | 4.8 | 0.00 | 0.00 | 0.00 | 85 | 1016.0 |
| 20260508054539 | 10 | 39 | 0.0 | 3.2 | 0.00 | 0.00 | 0.00 | 84 | 1015.9 |
| 20260508053058 | 10 | 0 | 0.0 | 3.2 | 0.00 | 0.00 | 0.00 | 82 | 1015.9 |
| 20260508051541 | 10 | 0 | 0.0 | 3.2 | 0.00 | 0.00 | 0.00 | 80 | 1016.0 |
| 20260508050043 | 10 | 38 | 0.0 | 3.2 | 0.00 | 0.00 | 0.00 | 81 | 1015.8 |
| 20260508044540 | 10 | 351 | 0.0 | 4.8 | 0.00 | 0.00 | 0.00 | 82 | 1015.8 |
| 20260508043041 | 10 | 0 | 0.0 | 1.6 | 0.00 | 0.00 | 0.00 | 81 | 1015.7 |
| 20260508041604 | 10 | 0 | 0.0 | 3.2 | 0.00 | 0.00 | 0.00 | 82 | 1015.6 |
| 20260508040046 | 11 | 0 | 0.0 | 3.2 | 0.00 | 0.00 | 0.00 | 81 | 1015.5 |
| 20260508034537 | 11 | 360 | 0.0 | 8.0 | 0.00 | 0.00 | 0.00 | 78 | 1015.5 |
| 20260508033041 | 11 | 46 | 0.0 | 3.2 | 0.00 | 0.00 | 0.00 | 78 | 1015.6 |